Regional Weather Roundup
Issued by NWS

Home | Current Version | Previous Version | Text Only | Print | Product List | Glossary Off
Versions: 1 2 3 4 5 6 7 8 9 10 11 12 13 14 15 16 17 18 19 20 21 22 23 24 25 26 27 28 29 30 31 32 33 34 35 36 37 38 39 40 41 42 43 44 45 46 47 48 49 50

000
ASUS43 KLSX 302210
RWRMO

WEATHER SUMMARY FOR MISSOURI
NATIONAL WEATHER SERVICE SPRINGFIELD MO
500 PM CDT SUN AUG 30 2015

NOTE: "FAIR" INDICATES FEW OR NO CLOUDS BELOW 12,000 FEET WITH NO
       SIGNIFICANT WEATHER AND/OR OBSTRUCTIONS TO VISIBILITY.
       CURRENT SKY AND/OR WEATHER CONDITIONS ARE NOT AVAILABLE FOR
       CHILLICOTHE AND FARMINGTON.

MOZ001>031-035>038-043-044-053-054-302300-
...NORTHERN AND WESTERN MISSOURI...

CITY           SKY/WX    TMP DP  RH WIND       PRES   REMARKS
KANSAS CTY INT MOSUNNY   84  63  49 E7        29.98F
KANSAS C DTWN  MOSUNNY   85  70  60 SE6       29.96F
LEE`S SUMMIT   SUNNY     84  68  58 SE6       29.99F
ST JOSEPH      SUNNY     82  69  64 SE7       29.98F
CHILLICOTHE      N/A     85  71  63 CALM      30.00F HX  90
KIRKSVILLE     MOSUNNY   83  67  58 S6        30.02F

$$
MOZ066>068-077>081-088>096-101>105-302300-
...SOUTHWEST MISSOURI...

CITY           SKY/WX    TMP DP  RH WIND       PRES   REMARKS
SPRINGFIELD    MOSUNNY   85  68  56 S9        29.99F
JOPLIN         PTSUNNY   84  70  62 SE6       29.96F

$$
MOZ032>034-039>042-045>050-055>058-069>072-302300-
...CENTRAL MISSOURI...

CITY           SKY/WX    TMP DP  RH WIND       PRES   REMARKS
COLUMBIA       MOSUNNY   85  70  60 E3        30.00S
JEFFERSON CITY PTSUNNY   84  70  62 E5        29.97F
ROLLA          MOSUNNY   85  68  56 S7        29.99F
SEDALIA        MOSUNNY   87  70  56 SE8       29.99F HX  92
WHITEMAN AFB   MOSUNNY   86  71  61 S5        29.96F HX  91
WARRENSBURG    PTSUNNY   82  70  65 NE5       29.98S
OSAGE BEACH    MOSUNNY   86  72  62 S7        29.99S HX  92

$$
MOZ051-052-059>065-302300-
...EAST CENTRAL MISSOURI...

CITY           SKY/WX    TMP DP  RH WIND       PRES   REMARKS
ST LOUIS INTL  PTSUNNY   87  67  51 VRB3      29.99F HX  90
SPIRIT OF STL  MOSUNNY   88  70  55 CALM      29.97F HX  93
ST CHARLES     PTSUNNY   86  70  58 VRB3      29.98F HX  90

$$
MOZ072>076-082>087-097>100-106>115-302300-
...SOUTH CENTRAL AND SOUTHEAST MISSOURI...

CITY           SKY/WX    TMP DP  RH WIND       PRES   REMARKS
CAPE GIRARDEAU MOSUNNY   85  72  65 SE8       29.99F HX  91
FARMINGTON     CLOUDY    75  70  83 E13       30.04R THUNDER
POPLAR BLUFF   MOSUNNY   86  71  60 S5        29.98S HX  91
WEST PLAINS    MOSUNNY   84  69  60 SW7       30.03F

$$



USA.gov is the U.S. government's official web portal to all federal, state and local government web resources and services.